Theta_e
320 320 321 321 321 321 321 321 322 322 323 323 323 323 323 323 323 323 323 323 323 323 323 324 324 325 325 325 326 325 323 314 312 311 309 313 320 327 330 337 338 333 325 314 313 311 309 310 310 311 312 312 310 310 311 312 310 311 303 301 299 300 299 303 301 302 303 300 303 302 302 302 301 304 304 303 302 303 305 304 306 307 306 309 309 307 309 311
320 320 320 320 321 321 321 321 321 322 322 322 323 323 323 323 323 323 323 323 323 323 323 324 324 324 325 325 325 324 322 315 312 311 311 323 332 331 335 339 337 330 322 313 311 310 308 307 309 310 310 308 311 309 309 309 311 306 303 301 298 303 302 305 304 305 302 302 304 304 300 301 302 302 305 302 303 304 303 305 306 305 307 309 309 310 307 311
319 320 320 320 320 320 320 321 321 322 321 322 322 322 322 322 322 323 323 322 322 323 323 323 324 324 324 325 324 321 319 316 307 307 316 333 339 335 339 339 332 327 315 312 312 311 309 309 310 310 309 307 308 306 309 308 309 307 303 299 301 305 304 302 304 303 304 304 303 304 303 300 303 302 304 301 302 304 302 303 306 305 306 308 309 309 308 309
319 319 319 319 319 320 320 320 321 321 321 321 322 322 322 322 322 322 322 322 322 323 323 323 323 324 324 324 326 322 317 312 305 308 313 328 334 338 339 336 331 324 314 313 311 310 309 310 309 309 307 305 305 309 305 308 306 307 303 300 303 305 303 304 304 304 305 302 302 302 302 300 304 303 302 302 300 302 304 307 306 306 307 309 310 310 311 308
319 320 320 319 319 319 319 319 320 320 320 320 321 321 322 322 322 322 322 322 322 322 323 322 323 324 323 325 322 316 314 303 304 309 321 337 334 336 338 334 330 316 314 309 310 310 310 309 308 307 306 303 304 305 305 307 308 306 303 305 306 302 301 305 306 304 303 300 300 301 299 303 302 300 300 302 300 301 305 307 309 309 309 309 309 309 310 308
320 320 319 319 318 319 319 319 320 320 321 321 321 321 322 322 322 322 322 322 322 322 322 323 323 323 323 323 323 315 308 294 310 314 333 329 337 339 337 332 322 312 312 311 310 309 308 307 307 304 303 303 303 301 304 306 307 300 304 305 306 306 303 306 305 302 301 301 301 301 303 303 301 302 304 303 302 305 309 309 309 309 310 310 308 307 307 308
320 321 319 318 318 318 319 320 319 320 320 320 321 321 321 322 321 322 322 321 322 322 322 323 323 323 323 321 319 308 306 306 309 318 335 337 339 338 334 328 320 313 312 309 309 308 308 306 305 304 303 302 303 302 303 304 304 302 300 304 303 306 304 306 305 299 301 301 302 304 304 301 303 300 304 302 305 307 308 309 309 310 310 308 306 307 306 308
322 321 320 319 318 318 319 320 319 319 319 320 320 321 321 321 322 321 321 322 321 322 322 322 322 323 323 317 313 306 305 304 310 319 333 337 336 331 321 314 313 314 311 310 308 307 307 304 303 304 302 301 302 302 302 301 303 301 301 304 304 302 304 305 305 303 303 303 305 303 301 302 304 304 302 301 305 307 308 309 309 309 309 308 306 306 306 307
322 321 320 320 319 318 319 319 319 319 319 320 320 320 321 321 321 321 321 321 322 321 322 322 322 323 321 312 307 302 302 318 309 317 336 333 325 314 315 311 312 311 310 309 309 309 308 305 305 305 300 301 302 301 300 300 298 302 302 304 303 302 304 304 302 301 302 303 303 301 301 303 304 303 300 302 305 307 308 308 308 308 307 306 306 306 306 306
321 321 321 320 320 320 319 318 318 319 319 320 320 320 321 321 321 321 321 321 321 322 321 322 322 321 311 311 307 298 310 308 317 329 327 323 313 312 312 316 311 311 308 307 306 308 307 307 306 307 305 302 301 300 301 299 298 300 302 301 301 302 302 302 300 302 302 302 302 299 300 301 303 300 298 305 306 307 306 306 307 306 305 305 305 306 306 306
320 320 321 320 320 319 318 318 318 319 319 320 320 320 321 321 321 321 321 321 321 321 321 321 321 316 309 308 302 299 312 316 323 324 319 316 312 312 313 312 312 310 311 307 308 309 309 308 309 306 304 301 300 300 299 300 301 299 298 300 300 301 301 300 299 299 300 299 300 300 299 302 302 299 298 303 304 304 303 304 305 305 305 305 306 305 307 306
321 320 320 320 319 318 318 318 318 319 319 320 320 320 320 320 320 320 320 320 320 321 321 321 319 315 306 305 302 305 311 315 322 320 316 316 314 312 310 310 310 315 311 307 307 312 309 310 309 304 300 303 298 297 298 301 300 298 298 296 299 300 299 301 299 301 300 298 298 301 297 296 298 296 302 304 305 303 302 303 304 304 305 306 307 306 306 306
321 320 320 319 318 317 317 318 318 318 319 320 320 320 320 320 320 320 320 320 321 320 321 321 318 316 307 304 308 310 310 320 318 313 311 312 309 309 309 310 308 306 309 310 309 311 307 308 308 303 303 302 299 297 298 300 297 298 298 296 296 297 297 301 302 298 297 298 298 299 290 296 299 301 303 305 303 302 301 302 303 304 305 305 305 305 305 306
321 320 319 318 318 317 317 318 318 319 319 320 320 320 320 320 319 319 320 320 321 321 321 321 320 313 306 306 304 306 311 315 314 315 311 310 312 311 311 309 308 306 308 307 305 305 306 305 308 304 301 300 299 302 299 298 298 296 297 295 294 293 294 299 298 295 296 298 298 299 291 294 299 302 305 304 301 300 300 301 303 304 304 304 305 304 305 306
320 318 319 318 317 318 318 318 318 319 320 320 320 320 320 319 319 319 320 320 320 320 318 319 316 307 302 307 304 308 314 310 311 314 313 309 309 308 307 308 307 306 306 308 307 303 306 308 305 301 300 301 301 298 296 296 297 297 293 292 295 292 295 299 300 297 295 296 297 297 292 294 298 301 304 302 300 299 299 300 302 302 303 303 304 304 304 305
320 319 319 318 318 318 319 319 318 319 320 320 320 319 319 319 319 318 320 319 320 320 318 314 310 304 303 301 308 316 308 307 307 308 309 311 312 308 310 306 305 305 306 304 305 305 305 306 301 300 300 300 298 296 295 295 296 296 293 292 293 295 294 295 299 300 298 297 295 296 293 296 297 301 303 301 298 299 299 300 302 302 302 303 303 304 304 305
320 319 319 319 319 320 320 318 319 319 320 320 319 320 320 318 319 318 319 318 317 318 317 307 308 307 300 307 306 303 303 307 305 310 308 308 308 308 307 306 304 303 305 304 305 306 304 302 299 300 300 298 299 297 292 292 292 294 295 292 295 293 294 292 298 301 298 296 294 295 293 294 297 300 301 303 302 301 300 300 301 302 303 303 304 304 304 304
320 319 319 320 320 320 319 319 319 320 320 319 319 318 316 318 319 318 317 316 316 315 312 311 311 305 302 305 301 304 305 304 309 305 307 305 308 307 306 303 301 304 304 303 303 302 301 300 299 297 299 297 295 295 291 288 293 295 295 293 293 293 292 292 293 296 297 296 293 295 293 294 296 298 300 301 302 301 300 300 301 301 302 303 304 304 304 304
319 319 320 320 320 320 320 320 320 320 320 319 319 314 316 313 314 316 309 308 307 304 301 302 301 298 299 301 304 300 307 306 307 307 305 307 305 304 304 305 305 303 301 299 299 300 300 300 300 297 293 295 294 295 294 295 297 295 294 293 292 291 293 292 296 298 297 294 293 294 293 295 297 298 299 301 302 301 300 301 301 301 302 302 303 304 304 305
319 319 320 321 321 321 320 321 321 320 320 318 315 310 312 310 308 303 306 306 304 307 306 305 305 303 303 305 305 305 307 305 305 305 306 306 305 304 303 303 303 303 299 298 298 299 301 295 293 293 296 298 298 297 298 299 296 293 293 293 292 292 293 296 296 298 297 293 293 294 295 295 296 297 299 300 301 300 300 300 301 302 302 303 303 304 305 304
319 320 321 321 321 321 321 321 321 320 319 317 310 310 309 304 304 304 303 306 309 306 304 305 305 305 307 307 305 305 303 302 304 305 306 308 305 305 300 302 299 297 298 299 299 297 297 294 294 297 298 299 299 298 297 296 295 294 293 293 292 293 291 295 296 298 296 292 292 294 293 294 295 297 298 300 299 298 300 300 301 301 302 303 304 304 304 303
320 321 321 321 321 321 321 321 320 320 316 312 310 306 302 302 303 305 304 304 308 308 305 306 304 302 306 305 305 305 305 302 302 303 307 306 303 301 301 300 297 297 297 296 296 294 293 291 296 299 300 296 294 294 294 294 294 294 292 293 292 292 295 296 296 297 295 291 292 294 292 293 295 296 298 299 299 300 301 301 301 301 302 303 304 303 303 303
320 321 321 321 320 321 321 321 320 317 315 313 309 304 304 306 307 308 306 302 299 305 301 303 301 301 303 305 305 305 301 299 300 303 304 306 300 300 300 298 297 297 295 297 295 295 291 294 297 300 299 295 294 293 293 293 293 292 293 291 289 294 291 290 294 292 292 292 291 292 290 292 296 298 298 300 300 300 302 302 303 303 302 302 301 302 302 302
320 320 320 320 321 321 321 321 320 318 312 307 309 306 306 309 308 306 305 301 300 305 303 303 302 302 302 303 305 305 301 301 300 300 306 304 301 301 299 298 296 295 295 296 296 296 295 295 297 298 297 295 294 294 292 292 292 295 294 292 291 292 293 292 292 294 294 295 293 292 293 295 298 296 297 298 299 299 300 301 302 303 304 303 304 303 303 303
319 320 320 320 320 321 320 320 316 314 307 307 309 308 307 309 309 309 304 301 299 300 303 301 302 303 303 307 305 302 301 299 301 299 305 304 300 298 298 298 297 294 296 297 296 295 296 296 296 295 294 294 293 292 293 294 291 293 296 294 293 294 293 293 294 292 290 290 292 291 287 290 295 296 297 300 300 299 300 299 301 303 303 302 301 301 302 305
319 320 320 320 320 320 321 318 315 310 311 312 311 308 307 307 308 307 303 297 295 303 302 298 304 297 304 298 302 300 301 298 298 300 302 303 304 300 297 296 296 294 296 295 294 295 295 296 296 295 295 294 293 293 295 295 291 290 292 296 295 294 293 293 292 291 287 286 291 293 286 284 294 294 296 298 298 299 302 302 301 302 302 301 301 301 302 303
320 319 320 320 320 321 316 315 310 310 314 312 308 306 306 308 307 306 298 295 292 301 298 299 300 299 303 297 298 300 294 295 300 300 301 303 301 303 296 296 295 293 294 296 293 292 293 293 292 293 293 293 292 290 295 294 292 290 294 292 294 293 292 292 291 290 289 292 292 290 291 286 287 293 297 298 297 298 300 301 303 302 300 300 300 300 302 303
319 320 320 320 320 320 319 314 313 313 315 310 306 306 306 306 306 304 299 287 287 302 296 298 299 305 302 298 300 297 294 294 294 296 299 301 300 299 297 295 295 295 294 294 288 295 292 293 292 292 292 292 291 295 297 295 292 292 291 292 292 292 292 291 291 290 289 287 286 289 291 286 288 293 293 294 294 297 298 300 301 301 300 299 300 300 302 302
316 318 318 319 320 321 318 316 315 314 310 304 305 305 305 305 302 302 296 285 300 296 304 295 305 299 298 299 297 293 295 294 293 296 300 299 301 298 295 296 295 295 293 295 292 294 292 292 295 296 294 292 295 292 295 296 292 292 291 292 291 292 291 291 290 290 289 286 284 287 291 287 288 297 294 293 293 295 298 299 299 298 298 299 299 300 301 301
314 316 318 319 319 317 315 314 314 310 306 306 305 304 304 305 307 296 289 282 302 294 297 298 298 295 295 295 294 295 295 294 294 297 299 298 299 299 294 294 294 293 294 292 293 295 292 293 293 294 293 296 294 290 290 295 293 292 295 294 293 292 291 290 290 289 287 283 286 290 291 291 286 294 296 294 296 296 297 299 299 299 299 298 298 298 297 297
312 314 317 318 316 316 315 311 314 307 307 306 306 306 310 311 299 290 283 294 300 299 296 296 294 295 294 294 296 293 294 291 295 296 295 297 296 297 296 293 296 294 291 292 291 295 292 292 292 295 296 292 295 292 290 290 290 293 291 290 290 289 288 288 287 288 283 283 289 291 291 292 284 290 294 296 296 295 296 296 298 298 297 296 296 296 296 296
311 313 316 318 317 318 315 313 311 308 307 307 309 311 309 294 298 286 287 303 292 298 296 294 293 293 291 292 294 293 293 291 291 292 293 294 294 293 294 292 294 288 290 287 290 292 290 291 295 295 294 294 294 292 291 291 290 291 289 288 284 284 285 283 285 281 283 284 286 287 289 286 286 293 295 298 299 299 296 297 297 295 294 294 294 294 294 294
310 313 314 316 316 316 315 312 309 308 308 308 311 312 300 291 283 293 293 299 293 299 296 296 294 293 294 294 296 292 291 293 292 290 292 289 291 294 294 293 296 294 289 292 289 291 294 291 291 294 294 295 296 289 289 288 289 288 286 286 284 281 281 279 283 283 283 286 285 286 289 285 291 293 297 297 300 298 297 297 295 294 293 292 293 293 292 292
311 312 314 314 317 316 312 310 310 310 310 311 310 303 296 286 286 296 296 297 297 298 297 295 293 293 294 296 298 295 296 296 292 292 292 290 290 290 294 292 290 292 291 288 287 288 285 288 293 292 293 296 294 294 294 293 289 289 293 289 287 287 283 279 283 281 283 287 286 287 285 285 286 293 296 297 296 297 297 296 295 294 294 292 292 292 291 291
310 314 314 315 315 316 311 311 310 312 313 310 304 298 287 288 293 293 293 298 298 296 298 296 297 296 296 294 296 294 297 295 293 291 291 293 292 290 293 294 291 293 290 287 289 286 288 289 297 296 294 294 294 296 294 291 288 289 290 290 287 286 291 283 286 285 286 286 286 283 285 291 292 296 297 298 297 297 293 293 293 292 292 291 290 289 289 288
309 310 312 312 312 315 313 313 312 314 312 306 298 290 288 293 291 297 294 300 296 296 295 297 297 293 294 295 296 295 298 296 295 293 292 293 295 294 297 295 291 292 290 287 289 286 288 287 294 291 290 293 294 293 293 295 286 287 286 284 289 294 290 286 285 286 285 284 282 290 289 292 297 297 298 299 297 294 292 291 290 290 290 289 287 287 287 287
303 307 304 308 311 316 316 314 314 313 310 305 296 288 295 296 301 300 302 298 297 297 295 291 292 292 291 291 294 293 295 296 294 293 291 294 291 295 294 295 296 294 295 295 288 294 287 289 297 294 293 297 292 292 294 292 295 287 283 289 291 294 294 287 281 284 282 279 282 289 285 288 290 286 294 296 294 291 290 289 289 288 288 286 286 286 286 286
302 303 304 306 311 316 316 314 313 311 308 300 293 294 300 296 302 301 298 296 296 298 295 293 294 296 291 291 291 292 294 292 293 292 291 294 290 299 294 297 297 296 296 298 292 292 294 285 293 297 297 295 289 293 291 294 294 290 289 292 288 283 283 287 284 276 277 277 280 285 287 287 290 290 294 294 293 290 288 287 286 285 285 285 285 286 286 287
301 302 298 304 311 315 314 314 312 307 302 295 293 291 298 299 302 301 298 299 299 298 294 295 292 297 296 292 293 293 294 289 294 291 289 293 289 298 296 298 297 294 293 295 291 292 293 286 289 290 294 293 292 291 285 290 292 290 291 290 292 288 286 285 284 284 285 278 280 279 285 283 293 293 294 290 290 289 288 287 286 285 285 286 287 287 286 286
298 297 295 307 311 315 314 313 307 304 299 291 294 294 301 297 300 297 296 299 298 297 295 295 297 292 296 295 296 292 295 293 293 292 291 296 292 299 295 297 296 295 292 294 294 296 290 293 283 292 289 292 286 289 287 290 286 286 287 286 289 287 289 288 285 283 282 280 280 279 278 284 292 293 291 287 288 288 287 286 286 286 286 286 286 286 287 286
300 298 299 311 312 314 312 307 300 296 295 298 299 297 298 296 297 298 298 300 301 302 298 297 296 293 295 294 294 297 294 294 294 293 294 293 293 289 295 293 296 295 294 293 292 293 289 289 285 289 288 287 290 296 293 294 293 291 289 286 288 285 283 280 278 288 284 282 279 279 277 286 291 289 288 287 287 287 287 287 286 285 286 286 286 286 286 286
297 290 295 308 312 312 306 297 297 299 296 294 293 297 295 302 298 299 299 298 300 300 299 296 297 296 295 295 296 295 295 293 294 293 294 292 295 295 295 292 295 297 295 291 291 295 293 287 285 283 288 290 294 295 293 293 292 292 292 289 292 289 288 284 278 282 285 284 286 284 281 283 287 288 288 287 287 286 287 287 285 285 285 286 286 287 287 287
296 293 302 306 311 310 303 295 298 296 294 298 302 300 301 298 298 298 297 297 297 300 298 297 297 295 297 296 295 294 295 291 293 291 294 295 295 295 291 293 294 296 297 293 297 287 291 286 284 285 291 293 295 296 293 290 291 290 290 291 290 287 289 286 286 286 283 285 283 283 279 284 289 287 287 287 287 286 286 287 286 285 285 285 285 286 286 286
296 295 298 304 304 307 299 288 290 292 295 298 298 297 301 299 297 296 296 297 297 297 296 295 296 298 295 296 295 293 295 287 293 293 292 293 292 292 292 291 293 289 292 293 292 296 287 287 286 282 283 285 289 292 290 291 291 287 287 289 288 290 289 287 285 285 280 282 283 281 276 284 288 285 285 285 285 285 285 286 286 286 286 286 286 286 286 286
292 294 294 296 303 303 294 297 293 293 293 293 294 293 294 296 298 298 297 296 299 298 296 294 297 297 295 295 292 292 293 291 287 290 293 291 294 292 289 292 294 290 288 292 292 295 288 287 286 279 276 274 274 277 280 283 285 287 287 287 289 287 286 285 282 285 280 283 284 281 280 287 286 285 285 285 284 283 283 283 284 285 284 284 285 285 285 286
289 284 291 293 297 296 295 296 296 295 293 292 291 292 293 291 295 298 298 296 299 299 298 297 295 296 293 292 290 291 291 294 288 288 290 290 292 291 289 290 291 292 291 291 290 294 287 288 288 285 282 280 282 285 290 289 287 283 285 287 286 288 287 286 284 281 278 282 281 283 284 284 287 289 290 285 284 283 281 282 281 283 283 284 284 284 285 285
291 286 288 286 294 293 291 294 292 294 291 295 287 293 290 291 293 293 299 293 296 296 296 296 294 292 290 291 289 290 292 291 292 290 289 290 291 290 289 289 289 288 288 291 291 290 286 284 286 286 286 286 287 287 290 287 285 285 284 284 287 287 286 284 281 279 285 280 275 284 285 283 284 288 289 288 283 281 281 281 282 282 283 284 284 284 285 284
285 286 289 290 288 285 287 288 291 290 291 292 289 292 288 290 291 289 293 295 295 293 291 292 292 292 291 290 289 285 288 287 287 284 289 286 287 289 289 289 287 286 288 289 291 288 285 282 286 287 285 288 289 288 287 285 284 284 284 284 283 285 285 282 282 285 284 279 277 283 284 281 283 285 287 285 281 280 281 281 282 283 283 284 284 283 284 283
288 287 287 290 285 286 288 288 287 288 288 290 287 290 288 289 288 291 290 289 291 289 293 285 287 285 286 287 288 285 286 282 282 285 283 284 282 284 285 287 286 286 287 286 287 288 286 281 285 284 282 283 285 286 286 284 283 284 283 283 284 284 284 284 283 285 284 282 283 283 283 282 284 285 285 281 282 282 282 283 283 283 282 283 284 284 284 284
285 286 284 287 286 285 284 286 286 286 285 287 285 287 288 288 286 289 291 289 285 288 292 287 285 284 285 285 285 284 286 287 285 283 285 281 282 285 282 284 284 285 285 283 285 286 286 279 283 279 280 279 283 284 284 283 282 279 281 282 283 282 282 283 282 282 283 282 282 282 281 280 285 283 284 283 281 283 283 282 282 282 283 282 283 283 284 285
289 291 290 285 283 283 283 284 284 284 283 284 284 285 286 286 286 288 286 289 288 286 287 285 284 282 284 283 284 283 286 284 285 285 284 284 282 285 282 283 284 279 283 281 284 282 284 278 283 279 276 276 281 280 281 281 279 278 277 279 280 280 278 280 280 283 281 279 281 281 279 280 283 281 281 283 281 281 280 281 282 282 283 282 282 282 283 284
289 290 289 288 281 286 281 283 281 282 279 284 285 285 285 284 283 286 284 286 284 286 286 285 285 284 282 282 282 285 286 285 284 285 286 286 286 284 285 284 284 282 281 281 283 280 282 279 277 277 274 273 279 280 278 277 276 273 274 277 280 281 281 282 283 283 283 283 279 276 277 282 281 283 279 280 281 279 281 281 281 282 282 283 283 283 284 284
Wind_Speed
10 10 10 10 10 10 11 10 10 10 11 11 10 11 11 11 11 11 11 11 11 11 12 12 12 11 12 10 9 7 8 2 3 3 4 8 2 5 8 3 12 13 9 8 9 9 5 5 6 1 4 4 2 3 1 0 1 3 4 4 6 6 6 4 7 8 2 5 6 4 5 5 9 2 2 2 7 9 12 12 9 9 11 13 4 3 5 4
10 10 10 10 10 10 10 10 10 10 10 10 10 10 11 11 11 11 11 11 11 11 11 12 12 11 11 10 9 7 5 2 5 4 13 5 4 7 4 10 13 13 10 9 10 8 7 6 4 4 6 4 1 0 1 2 1 5 2 4 8 3 3 5 6 7 4 8 7 3 5 3 10 3 2 6 9 7 11 15 12 13 16 16 13 7 4 6
8 8 9 10 10 10 10 10 9 10 10 10 10 10 10 11 11 11 11 11 10 10 11 11 11 11 11 10 9 2 3 3 3 5 0 6 6 7 6 9 15 12 11 8 6 8 5 6 8 7 2 2 1 2 2 1 4 3 4 7 9 7 3 4 5 8 9 10 11 11 2 4 4 2 1 7 11 8 13 14 10 12 15 14 14 11 10 7
8 8 9 9 9 10 10 10 10 10 10 10 10 10 10 10 10 10 10 10 10 10 10 11 11 11 10 10 9 2 3 5 5 2 2 4 5 6 8 11 13 10 3 4 4 4 4 8 6 5 3 5 2 2 4 4 4 3 5 8 6 2 6 8 11 11 8 2 9 7 5 8 8 6 5 4 6 12 15 17 17 16 16 14 6 8 6 8
7 7 8 8 9 9 9 9 9 10 10 10 10 10 10 9 10 10 10 10 10 10 9 10 11 11 10 9 7 1 4 8 2 2 3 4 5 7 9 11 11 6 2 7 8 5 6 7 7 2 2 4 2 2 6 4 2 3 9 9 10 3 6 7 7 2 3 1 5 6 7 11 4 3 9 9 10 12 12 13 12 11 14 14 13 6 5 7
7 7 8 8 8 8 9 9 9 9 10 10 10 10 10 10 10 10 10 10 9 9 10 10 10 11 10 8 3 2 2 5 1 1 3 4 5 7 10 10 8 7 10 8 6 7 8 5 7 4 4 4 6 8 3 4 5 8 10 12 11 8 11 1 3 2 4 4 5 8 6 5 6 11 10 11 16 18 18 19 20 19 17 12 4 4 7 9
6 6 7 8 8 8 8 8 9 9 9 9 10 10 11 10 10 10 10 11 10 9 10 10 10 10 11 4 2 2 4 7 3 1 4 5 6 10 10 9 8 9 9 7 7 8 6 6 8 4 3 3 6 7 3 5 2 7 11 2 8 8 13 7 6 5 4 5 10 7 8 12 11 14 4 13 18 22 22 21 21 20 18 4 10 11 13 13
5 4 3 5 8 8 9 9 9 9 10 10 10 11 11 11 11 11 11 11 11 10 9 10 9 10 9 2 2 1 3 8 1 3 2 7 8 10 11 5 7 7 10 11 11 8 7 8 10 4 6 8 2 7 2 4 6 9 12 9 8 2 9 9 6 6 7 10 10 6 12 21 15 14 4 15 17 19 21 21 20 18 16 13 11 15 14 13
3 2 3 2 5 7 8 9 10 10 10 11 11 12 12 12 12 12 12 12 11 11 10 9 10 9 5 3 2 5 8 4 1 1 7 8 7 8 11 9 6 12 7 3 4 6 8 8 4 9 6 7 3 8 4 5 9 13 16 8 5 7 9 6 4 7 9 6 5 6 17 20 16 6 19 24 22 20 19 21 20 16 15 15 14 15 14 13
6 5 5 3 4 6 9 9 10 10 11 11 12 12 12 13 13 13 13 12 11 11 10 8 8 8 3 3 2 7 4 3 1 4 3 7 8 8 5 2 12 10 7 5 3 7 12 6 9 4 2 2 4 5 3 9 3 2 4 6 10 12 10 7 10 10 9 10 7 12 18 19 3 2 15 6 12 10 13 16 15 11 13 13 11 10 11 13
6 7 6 6 5 7 9 10 10 10 11 12 12 12 12 13 14 14 14 14 12 11 9 7 3 2 3 3 6 12 4 2 2 4 5 6 9 10 8 4 8 9 6 3 9 11 2 4 5 5 1 4 5 4 5 3 4 3 4 9 13 13 11 9 9 14 4 10 12 14 17 17 10 2 18 15 5 3 5 13 13 10 11 11 12 12 10 10
5 6 7 7 8 9 9 10 10 11 12 12 13 13 13 14 14 15 15 14 12 9 8 5 1 1 2 4 9 9 2 2 5 4 5 6 5 3 3 1 4 4 9 8 8 2 1 3 7 7 4 6 5 2 4 2 3 3 5 10 11 12 15 16 11 13 11 9 6 8 9 14 11 12 21 16 8 6 9 15 17 15 13 12 11 11 10 11
3 6 6 7 9 9 10 11 12 12 13 14 14 14 15 15 16 15 14 11 7 5 2 5 3 1 1 10 8 3 2 4 6 7 5 4 6 4 3 2 2 2 3 3 1 3 2 5 6 8 2 4 1 4 3 1 2 3 5 4 12 13 13 11 7 2 4 3 8 9 9 6 11 18 18 10 2 3 8 13 15 12 10 9 10 10 11 11
2 4 6 8 8 9 10 12 13 13 14 15 15 15 15 16 16 13 10 9 7 4 2 7 3 2 3 9 2 2 2 3 7 6 4 1 5 3 3 4 4 2 1 2 3 0 5 0 1 2 2 5 4 4 4 2 3 7 1 2 9 8 10 1 3 4 5 5 12 7 11 11 13 14 14 3 1 4 11 13 14 12 10 9 9 10 12 16
3 5 7 8 9 9 10 12 14 15 15 15 16 16 16 16 12 8 7 3 2 6 8 7 2 3 4 6 6 2 3 1 5 2 4 6 6 4 3 4 5 5 4 5 3 2 2 5 4 4 4 3 2 5 7 2 2 5 6 7 5 8 7 9 2 8 12 3 6 9 11 12 13 13 10 5 1 2 10 14 15 15 14 15 15 15 15 17
1 5 6 7 9 9 8 11 14 15 16 17 16 17 13 10 4 5 4 5 3 9 4 2 3 2 4 9 2 6 2 3 2 3 1 3 7 3 5 6 4 4 1 5 2 3 2 4 3 1 2 2 5 5 5 5 7 5 8 11 11 7 10 9 9 4 6 3 6 12 12 9 9 8 9 2 2 5 10 17 18 18 19 18 16 15 14 15
3 6 6 7 8 9 9 13 14 16 17 17 19 14 9 2 1 5 7 5 5 3 2 1 3 2 4 2 5 3 2 2 1 2 2 2 2 8 9 6 3 6 7 6 2 4 3 4 1 2 1 5 1 2 4 6 10 10 7 10 6 11 9 9 4 9 4 7 7 12 11 14 16 17 18 16 14 16 18 22 23 19 17 18 15 14 14 13
6 6 8 8 9 10 11 12 15 17 18 17 17 12 5 3 2 2 5 5 1 1 0 1 2 1 8 4 7 1 1 2 2 3 2 2 1 7 4 4 3 8 8 7 1 5 1 3 1 5 3 6 4 7 7 10 10 8 4 6 7 8 11 14 10 1 6 7 8 7 16 19 18 18 19 20 19 17 19 19 19 20 20 18 15 14 13 10
3 6 6 6 7 9 9 11 14 17 17 19 10 3 3 5 2 1 1 1 2 2 2 4 3 5 4 1 4 2 2 2 3 1 4 6 2 3 5 4 8 11 6 5 3 5 2 2 2 4 10 10 11 13 13 17 14 9 6 9 10 12 10 9 11 9 8 15 13 15 17 17 15 13 13 16 16 17 21 20 18 18 18 16 16 15 7 3
5 6 4 6 8 7 8 10 14 16 17 12 3 1 3 2 1 2 2 2 4 6 7 4 6 5 10 10 4 3 2 0 3 2 3 1 7 7 5 3 3 1 6 7 6 7 3 9 9 10 13 14 13 17 19 15 4 4 5 8 13 13 14 14 16 15 2 8 13 18 19 19 18 15 15 17 19 20 22 22 18 17 15 15 17 10 4 3
8 9 9 8 8 7 7 10 13 15 16 6 3 2 2 0 3 3 5 8 9 4 7 11 14 12 13 2 3 2 2 2 2 3 2 1 2 10 5 6 7 5 6 1 5 3 2 10 11 15 17 13 7 4 6 10 10 12 12 12 14 10 16 13 15 9 2 6 9 8 18 19 18 18 18 19 21 24 21 17 18 20 19 16 12 3 4 4
10 9 9 9 8 7 7 8 12 14 8 2 2 3 1 2 2 2 2 7 2 7 7 13 4 7 8 6 3 2 2 5 3 4 2 3 5 7 5 8 8 9 5 4 2 3 7 11 12 15 10 6 3 2 1 7 11 11 10 11 10 11 14 16 15 12 3 1 11 9 16 15 19 22 23 19 19 17 16 16 18 19 18 13 7 6 5 3
10 10 9 8 7 7 7 7 9 9 4 2 3 1 1 1 1 1 2 3 8 2 6 10 6 10 12 3 1 3 7 10 7 5 6 5 4 4 6 7 8 1 5 9 10 7 8 8 14 14 4 3 3 2 3 6 7 8 9 8 11 7 6 10 4 2 2 1 13 15 20 16 19 21 18 14 13 14 14 16 17 19 16 7 9 7 6 7
10 9 8 8 8 6 7 6 8 2 3 1 2 2 1 0 2 2 2 4 6 6 3 0 3 4 5 5 2 7 9 3 0 4 3 6 7 4 4 9 6 4 10 12 14 12 11 5 1 8 6 8 12 8 5 8 13 9 12 10 12 14 13 11 10 6 10 13 4 12 13 11 4 1 5 1 2 9 12 13 17 8 7 4 4 2 2 3
10 9 9 8 7 5 5 6 2 1 0 1 1 2 2 1 1 1 3 4 3 6 3 2 1 1 1 2 2 4 2 2 2 4 1 4 6 4 2 2 3 10 10 10 12 12 12 3 3 4 6 10 9 8 10 11 14 9 7 10 17 16 16 15 14 9 7 8 3 9 12 3 4 2 7 6 4 6 10 13 14 7 10 8 6 4 2 2
10 10 9 8 6 4 3 4 1 2 1 1 1 3 2 2 1 0 3 2 5 1 1 2 2 3 1 2 3 3 4 2 3 1 2 3 3 3 3 3 1 4 6 5 8 5 5 2 5 8 6 4 6 8 11 11 12 8 6 10 14 14 13 11 12 6 7 4 3 6 5 12 4 11 9 10 9 11 16 12 4 6 7 6 3 2 1 3
9 9 8 7 6 5 1 3 2 2 2 1 3 2 2 2 1 3 3 3 3 2 1 2 1 2 1 1 1 2 3 2 1 2 2 2 3 1 5 3 2 2 2 2 1 5 5 3 1 1 4 5 5 7 11 12 7 10 3 0 3 6 7 7 5 6 10 4 6 7 8 10 13 3 2 4 7 14 16 13 2 8 8 8 5 4 4 5
4 6 7 7 8 10 0 3 3 1 2 2 3 3 3 3 3 2 2 6 2 2 2 2 1 0 1 0 2 1 3 2 2 2 1 1 1 3 5 5 6 4 5 3 10 2 5 3 5 5 5 5 10 13 5 11 8 1 3 1 1 3 4 2 4 6 4 6 6 4 3 5 8 0 1 4 6 13 13 8 8 11 8 6 8 6 5 9
5 1 4 6 7 8 4 0 1 2 1 3 3 3 2 3 2 3 1 5 1 2 1 2 1 1 2 2 2 3 1 1 2 2 2 2 4 2 4 4 3 2 2 6 10 2 1 1 3 6 5 8 6 4 4 9 9 2 4 6 5 3 3 2 3 4 4 3 9 6 8 6 15 1 3 1 5 7 6 7 10 11 10 8 10 9 11 13
4 4 1 5 5 3 0 2 4 1 4 4 4 4 4 1 0 3 3 6 3 0 2 2 2 2 1 3 2 2 4 2 1 1 2 1 1 1 3 2 2 2 6 3 7 8 1 1 0 3 9 5 4 3 1 3 2 4 4 1 1 1 1 1 0 2 3 8 8 11 14 9 11 1 0 3 2 3 5 4 7 13 14 15 13 13 13 14
5 3 1 10 4 3 5 2 4 4 4 4 5 3 1 2 3 2 8 1 2 1 1 1 2 1 3 3 1 2 0 2 2 1 3 1 2 1 0 2 1 1 1 4 7 6 3 3 2 5 1 4 3 5 3 1 2 0 0 1 5 4 2 3 1 2 4 10 3 8 11 12 10 2 4 0 2 6 3 4 7 15 12 12 13 13 14 13
6 4 1 7 1 3 4 2 2 5 4 4 3 2 2 4 2 9 2 3 3 2 2 2 0 2 2 3 1 2 1 1 1 1 2 1 1 4 5 4 2 3 3 2 2 5 4 9 2 1 1 5 4 4 2 2 1 2 2 2 3 4 3 3 4 2 7 8 1 3 3 4 15 11 7 11 12 4 1 3 9 11 10 12 13 13 12 12
5 2 3 2 2 3 2 2 6 5 5 3 2 1 1 2 8 5 1 2 2 2 2 2 2 2 3 1 2 1 1 2 2 1 4 0 1 5 4 4 2 2 8 2 6 7 5 5 3 5 1 5 6 7 3 2 5 6 5 3 1 4 3 5 5 3 5 1 2 2 1 10 8 4 15 20 13 5 6 11 12 13 14 13 12 11 11 12
5 1 1 1 3 1 3 6 6 8 6 2 2 4 3 5 5 4 5 6 2 4 3 2 1 1 2 4 0 5 1 3 5 2 2 2 1 1 3 4 4 1 2 4 5 5 10 7 2 4 1 7 11 12 5 1 7 9 1 7 5 5 2 7 3 9 8 6 2 3 1 4 1 2 5 4 5 5 10 12 13 14 13 12 11 11 12 13
4 2 1 1 2 2 5 5 7 7 5 3 1 4 6 8 2 5 4 4 2 1 1 3 1 1 3 2 1 3 5 3 3 5 4 5 5 4 5 4 5 4 2 1 2 2 8 11 2 2 1 7 9 3 5 5 2 2 1 2 1 5 3 10 7 6 8 7 6 4 6 1 5 4 3 3 1 11 14 15 13 14 11 10 11 13 12 12
1 1 1 2 3 4 6 5 5 5 6 5 3 5 11 5 3 3 1 2 3 2 1 2 3 5 8 6 1 2 2 5 2 3 2 5 2 4 4 4 7 14 7 6 5 2 2 8 6 2 1 8 8 5 4 4 6 2 3 5 6 2 4 5 2 1 2 3 14 5 8 11 7 11 8 3 10 12 14 14 14 13 12 13 13 11 11 9
1 1 2 3 3 6 10 7 5 6 3 4 5 9 7 4 5 0 1 4 1 4 2 4 4 4 2 3 3 4 4 1 4 4 6 3 5 9 3 5 3 9 11 9 4 7 7 11 2 6 5 8 2 3 2 3 3 7 3 5 2 1 2 2 5 1 5 10 7 4 14 13 6 8 5 10 9 10 10 10 10 11 9 11 8 8 7 7
0 0 2 3 4 8 10 8 9 5 4 6 12 12 3 6 2 9 3 3 1 1 4 4 5 2 5 7 7 6 3 7 3 4 5 7 6 7 3 4 6 10 13 3 5 2 5 9 9 8 13 2 1 2 4 4 2 5 4 1 3 3 4 5 1 5 5 8 6 7 13 13 10 10 7 1 7 6 7 6 9 10 9 8 8 8 8 7
1 1 3 3 1 8 9 10 8 8 6 8 10 12 6 9 3 4 4 2 1 4 6 7 9 3 5 7 5 2 6 7 4 5 5 4 7 5 6 2 4 2 2 4 3 1 1 8 6 3 4 3 3 5 6 7 3 2 1 1 1 1 5 5 5 1 2 9 6 4 6 8 4 4 2 6 7 6 5 8 8 8 7 6 6 6 6 6
3 3 4 1 3 7 10 9 7 8 8 14 11 11 3 2 4 1 1 5 3 5 5 7 8 9 5 8 4 8 2 6 5 5 6 1 9 2 1 3 2 2 2 3 3 1 4 3 12 3 3 1 4 6 5 8 5 3 3 5 1 2 1 2 3 2 5 5 7 5 8 7 4 4 4 9 5 6 7 7 6 6 6 6 6 5 5 4
1 1 1 2 5 9 10 7 7 12 11 5 6 8 2 6 2 1 1 2 4 3 3 3 4 8 4 2 6 3 2 3 3 6 4 2 5 8 6 4 4 2 2 4 1 2 3 4 11 6 5 7 8 2 4 7 6 6 9 9 10 4 3 5 8 4 6 7 6 7 10 3 3 4 7 8 6 5 6 7 6 5 5 5 4 4 3 2
4 4 1 3 3 11 10 10 7 2 3 11 10 7 7 1 5 6 3 3 3 4 3 3 2 6 3 7 8 2 2 3 5 6 5 12 6 11 3 7 4 2 1 2 1 2 2 1 1 5 9 11 5 4 1 3 4 3 3 4 2 4 5 6 10 6 5 7 8 9 12 4 3 2 5 6 5 6 5 5 5 4 4 4 5 6 6 6
3 2 3 5 3 10 8 9 6 5 6 3 4 1 1 3 3 1 2 1 2 2 1 4 8 8 8 10 9 9 7 8 5 10 6 5 10 3 5 7 5 3 4 3 4 0 3 1 3 8 9 9 13 2 2 2 0 8 7 6 4 8 6 7 6 4 4 1 7 6 9 2 4 4 5 5 6 5 4 4 5 4 3 2 3 3 5 6
2 1 1 1 5 3 9 10 11 14 10 7 5 9 3 3 1 2 3 5 5 2 3 2 1 6 5 2 2 6 1 3 5 9 6 4 1 3 5 6 5 1 0 2 1 2 3 2 1 4 3 2 5 2 1 2 3 1 1 2 1 4 6 5 2 2 6 6 8 8 10 2 3 7 4 6 7 6 5 3 3 3 3 3 4 3 3 4
2 2 1 3 3 1 8 3 6 9 11 13 11 14 13 9 5 8 9 7 2 5 1 3 6 1 3 2 1 1 2 8 5 0 2 2 1 3 5 6 4 2 2 3 1 2 3 4 4 9 10 9 9 8 6 2 2 2 2 2 3 4 4 6 8 7 10 6 15 11 9 1 6 3 8 7 6 5 4 4 3 3 1 1 1 3 3 4
2 4 1 1 1 2 2 1 1 6 9 11 12 12 12 12 8 5 8 8 11 7 9 7 2 3 4 3 5 8 9 4 5 2 1 3 1 1 2 4 7 3 4 3 5 1 1 2 5 9 12 13 13 11 3 5 1 4 3 3 5 4 3 4 6 7 8 6 7 5 7 9 8 7 10 3 2 4 4 4 3 3 3 3 3 3 3 3
1 3 4 4 1 2 1 1 3 2 6 6 7 3 12 13 8 1 6 5 1 6 4 7 5 6 5 8 10 10 10 10 8 9 11 13 2 1 1 3 3 7 5 1 1 2 1 4 6 10 12 13 15 14 9 2 9 9 8 10 8 8 6 9 9 11 6 12 14 7 13 10 6 10 12 9 5 4 4 2 3 4 5 5 5 5 6 5
2 1 3 2 1 5 7 7 4 3 1 2 5 3 2 6 8 7 3 1 1 2 4 3 3 1 1 4 3 3 1 1 1 3 2 0 0 1 0 3 3 5 3 1 1 2 2 11 7 12 12 14 10 8 5 5 6 7 8 9 12 13 13 14 13 12 13 12 15 11 14 15 14 12 17 4 5 3 3 1 3 3 4 6 6 7 7 7
1 1 1 3 3 2 1 4 4 4 6 5 2 3 7 8 8 4 2 2 2 2 0 4 2 3 3 2 1 2 1 5 4 1 2 1 1 1 2 1 3 3 5 2 2 1 1 6 5 3 6 5 8 9 8 8 7 9 10 11 13 15 17 16 16 16 18 19 17 17 19 22 20 14 2 4 1 2 2 2 3 4 4 4 6 7 8 8
1 2 2 3 4 3 1 2 2 2 6 4 4 8 6 7 14 9 1 2 4 5 2 6 1 2 1 2 0 5 5 5 5 10 1 3 3 1 2 3 2 1 3 2 3 4 2 5 6 2 4 6 7 8 9 9 9 12 11 13 14 17 18 15 17 17 17 19 20 22 22 22 6 7 5 3 0 2 2 6 4 5 5 5 7 8 8 8
1 2 1 4 3 2 3 1 2 2 3 3 8 5 0 3 9 2 4 5 4 8 1 3 5 4 2 3 0 3 2 4 2 2 2 2 4 1 2 1 6 4 5 1 1 3 3 4 3 1 6 7 6 8 9 5 6 9 11 17 21 19 16 15 16 12 12 15 17 17 15 13 2 5 4 2 1 2 5 7 7 5 5 5 7 8 9 9
1 1 1 1 2 3 4 3 2 3 4 3 3 3 3 1 1 2 3 3 7 7 5 7 4 4 2 4 6 4 3 4 4 2 2 3 3 4 3 6 4 3 2 1 2 2 2 1 1 5 9 8 11 7 3 3 8 11 13 19 19 18 19 18 17 19 21 18 14 13 11 1 5 4 3 2 1 4 7 7 7 7 6 7 7 9 9 9
Wind_Direction
37 34 31 28 25 23 21 18 16 15 12 12 10 9 9 7 4 2 2 359 356 354 349 343 345 344 342 344 346 343 325 278 181 214 220 245 82 131 164 88 144 141 157 130 133 146 142 155 161 144 166 208 26 209 42 190 343 204 221 242 247 263 229 198 226 201 27 279 290 182 191 237 273 204 185 204 227 237 267 263 236 236 244 240 247 82 83 135
34 29 26 22 20 18 16 13 12 11 8 6 6 4 5 2 0 357 356 356 352 349 348 343 339 341 340 340 342 340 315 229 235 228 237 99 148 163 148 153 140 154 158 155 164 176 153 171 159 181 170 191 21 84 290 162 261 221 204 225 271 228 259 176 227 234 223 268 284 305 151 238 272 327 290 279 271 242 270 262 241 238 242 239 237 193 185 163
34 29 24 21 16 10 9 7 6 4 5 0 1 359 359 357 354 352 350 350 347 345 343 341 337 336 338 338 338 335 276 254 231 235 258 119 140 159 158 144 155 165 173 177 179 180 197 189 160 172 174 216 63 152 242 140 216 217 240 248 244 237 227 218 226 233 225 281 284 286 261 228 250 248 85 254 280 277 264 273 264 237 256 240 230 210 203 198
29 26 23 20 15 7 3 2 1 359 359 354 351 354 352 350 348 347 344 343 340 341 341 339 334 334 333 333 338 292 266 265 262 120 99 167 161 161 161 156 159 169 86 67 142 119 92 114 143 208 152 231 111 247 216 173 226 134 214 238 261 259 252 229 222 238 248 272 275 275 281 276 259 224 207 258 282 262 258 254 255 266 277 290 250 203 176 212
25 24 23 16 12 6 359 357 356 356 351 348 347 344 345 344 342 339 341 336 338 338 337 336 331 327 332 328 334 246 303 283 29 301 120 155 164 176 157 154 151 159 152 124 108 107 145 148 149 87 217 218 157 192 240 156 279 144 232 247 258 109 249 251 223 216 242 8 268 267 277 281 65 222 220 232 251 267 270 279 274 266 277 282 284 264 179 216
8 23 18 11 5 5 357 351 352 353 346 342 340 340 338 337 338 334 334 336 331 335 334 331 330 325 322 329 280 230 299 314 105 171 166 188 157 160 153 132 139 140 135 144 145 149 142 150 172 182 201 230 200 223 131 197 156 248 231 238 250 242 259 260 244 148 181 224 232 265 272 321 248 268 241 219 234 253 261 273 279 281 281 284 301 254 233 227
347 17 13 3 360 355 352 349 347 350 341 338 336 337 333 333 329 333 327 329 328 327 331 328 325 325 325 298 210 287 245 274 218 187 132 151 149 145 136 124 139 148 159 128 149 159 189 154 207 204 195 238 243 236 189 186 201 246 269 160 254 240 243 252 261 106 213 234 255 265 307 276 266 270 235 226 235 249 262 267 271 277 280 279 280 264 253 244
320 3 20 4 357 350 345 345 344 339 339 335 333 334 330 327 328 325 327 321 323 322 326 322 326 322 336 225 243 189 162 246 326 21 157 124 129 128 123 123 154 158 178 186 169 181 171 181 201 119 232 238 136 205 148 199 186 234 251 251 265 263 257 266 266 247 248 249 260 287 280 266 262 265 291 250 248 253 259 264 266 270 272 272 264 267 261 255
327 355 342 351 358 337 340 341 339 336 332 332 331 327 328 323 324 323 319 319 316 316 316 322 316 328 307 276 205 277 235 239 19 163 156 129 128 124 144 149 193 175 187 164 213 168 180 212 204 185 263 220 155 238 155 229 243 205 243 264 267 259 265 258 253 235 236 255 196 252 254 266 275 326 270 257 252 253 257 264 265 264 267 268 261 257 256 254
338 342 334 337 347 336 339 337 334 331 329 329 328 326 323 324 320 319 315 313 310 308 305 309 323 312 311 162 167 262 269 80 95 135 117 125 128 143 195 151 171 177 160 183 148 167 206 194 204 172 7 279 160 230 115 199 268 94 290 287 282 281 287 267 250 263 230 246 192 225 259 266 277 68 279 262 234 236 250 257 264 258 262 263 258 256 251 250
329 338 342 345 349 344 336 334 329 326 327 324 324 323 322 318 318 314 313 308 305 296 296 290 344 324 219 174 245 264 107 145 120 118 131 139 140 162 184 170 180 177 186 140 203 203 206 106 102 105 193 243 148 210 203 232 352 351 341 294 274 273 262 240 237 251 222 263 206 227 255 268 264 172 253 263 100 152 259 266 265 250 252 260 261 258 254 248
333 341 339 340 343 338 332 329 325 325 324 324 323 322 321 318 315 313 309 306 298 289 278 280 93 291 268 222 239 246 62 76 134 128 125 154 131 54 17 221 202 204 184 184 220 233 9 139 160 176 270 109 238 25 230 323 316 351 317 290 289 291 288 270 237 255 187 236 146 203 248 264 243 234 247 255 251 241 250 267 272 268 263 265 268 267 261 250
320 336 340 339 334 332 329 326 325 325 325 324 324 323 321 320 316 314 311 307 295 280 246 159 119 262 262 271 249 43 8 106 116 112 94 74 104 83 56 67 109 25 331 289 224 163 164 159 184 212 119 216 199 270 102 235 71 276 224 280 298 285 277 292 204 30 160 213 152 149 273 247 241 237 249 246 175 215 251 259 265 268 263 263 266 267 268 264
289 352 336 334 333 330 327 326 325 324 324 324 323 323 321 318 318 316 317 308 298 267 221 189 187 178 207 258 87 4 83 95 116 130 126 160 153 70 92 68 82 65 2 79 62 96 135 211 174 68 70 233 247 103 189 70 191 276 19 120 264 287 267 201 129 132 243 154 173 196 262 271 271 272 282 92 174 240 263 266 269 270 265 260 255 256 266 269
66 351 328 333 331 325 322 325 325 323 322 323 322 322 319 319 321 328 329 350 28 160 112 116 200 188 206 268 96 44 161 94 173 157 157 166 149 126 115 127 73 53 67 70 112 114 139 132 122 209 224 59 328 281 271 313 261 264 281 250 203 233 259 277 231 186 258 129 214 183 254 261 267 274 291 103 78 270 273 274 272 273 273 271 267 264 263 266
91 338 328 325 327 322 315 323 323 321 321 322 324 320 313 317 342 358 36 47 93 140 148 200 155 284 312 277 128 129 172 206 166 35 125 305 190 187 115 111 115 87 159 53 94 126 73 170 197 320 336 163 228 239 269 298 257 210 230 266 268 248 270 296 268 270 227 136 213 202 262 290 266 262 267 124 221 226 271 280 278 276 273 271 265 260 258 266
15 334 316 295 311 318 321 323 321 322 322 324 323 317 318 332 76 49 50 51 62 120 242 104 141 219 256 74 121 241 197 106 138 143 112 27 343 133 132 119 125 97 91 105 99 138 58 174 35 211 182 259 271 182 271 255 265 249 208 255 245 266 293 274 325 275 120 200 224 221 252 248 266 280 285 284 283 283 283 280 281 281 276 272 271 262 260 263
323 313 295 296 313 319 322 314 321 321 322 325 322 318 319 331 170 148 115 69 67 86 177 191 233 290 238 104 259 176 70 177 133 115 53 1 207 150 132 133 111 129 129 110 77 186 324 171 290 228 197 212 195 216 218 248 244 258 217 248 260 223 228 265 287 357 318 193 253 249 243 256 260 269 276 279 281 278 271 271 275 278 276 276 276 274 273 278
339 297 306 314 314 298 306 317 321 322 323 324 317 325 71 85 90 230 43 136 225 183 187 156 190 202 273 177 1 126 176 101 110 209 137 134 92 86 82 70 145 144 163 188 140 177 146 133 179 214 232 218 209 211 219 235 250 278 314 286 291 286 275 260 259 270 260 286 285 270 272 281 280 269 268 278 280 278 275 276 272 268 274 280 279 275 298 293
262 267 284 282 275 287 295 320 323 324 329 331 10 334 199 227 196 160 172 235 224 261 300 278 236 315 322 276 229 51 74 35 181 37 115 300 146 144 78 142 71 301 151 207 139 200 158 196 190 202 225 228 221 213 227 248 341 336 279 268 271 279 278 271 272 272 228 292 254 263 272 281 283 280 278 279 280 273 269 267 278 278 276 275 268 287 324 354
242 239 244 251 262 268 291 316 323 324 328 317 295 268 19 8 313 324 331 268 261 277 256 250 224 235 246 26 74 177 249 181 33 120 112 132 291 159 163 149 169 194 200 75 136 83 203 220 217 222 233 248 258 264 264 276 283 275 275 278 277 266 278 271 283 296 244 253 278 274 280 278 283 279 270 265 264 266 270 288 277 278 275 266 280 25 57 59
236 237 240 248 254 265 294 316 321 325 323 237 353 56 89 21 354 320 313 291 249 232 230 246 40 272 274 301 70 329 32 314 172 101 111 217 156 224 150 196 168 223 111 127 128 177 210 223 224 227 239 60 47 8 245 252 262 258 258 272 281 272 273 278 262 274 310 255 282 274 284 288 286 278 268 257 260 269 274 262 269 270 271 272 53 48 22 346
240 239 246 253 256 267 284 306 314 339 322 7 52 82 73 46 301 334 324 260 269 226 232 247 237 245 270 330 252 100 260 233 265 145 169 184 109 269 141 187 204 130 147 188 212 211 244 227 231 236 229 243 244 215 249 270 249 252 257 250 258 281 291 298 174 88 148 244 299 310 297 290 261 257 264 274 244 254 256 255 257 253 263 342 357 354 303 291
247 248 246 246 252 252 274 306 306 293 36 15 71 67 76 108 132 178 205 273 319 285 236 235 287 276 272 300 40 210 213 259 272 243 138 187 179 135 193 201 189 171 210 202 222 235 238 67 288 238 210 218 243 227 233 259 265 225 230 254 273 266 258 250 291 340 313 283 258 305 278 275 281 229 120 145 278 259 262 263 254 266 60 64 71 92 302 267
241 242 242 245 248 242 266 303 296 57 157 229 116 122 159 173 245 208 293 262 181 256 107 125 308 249 359 58 324 212 157 146 258 22 296 277 140 157 217 41 222 228 221 210 233 247 249 121 112 127 199 219 226 241 221 238 260 259 206 223 249 265 279 279 288 336 303 289 78 337 331 292 181 123 28 345 281 252 243 241 254 70 71 71 77 93 206 302
234 237 239 240 237 219 265 280 135 136 258 158 82 150 168 152 172 201 272 337 289 160 265 149 237 92 306 115 4 330 161 191 351 325 353 351 328 315 104 196 181 290 201 205 240 264 291 112 197 226 194 186 211 239 236 208 254 269 262 207 249 261 271 281 289 327 286 285 62 2 326 297 192 270 281 266 264 270 262 246 300 12 41 47 88 78 23 45
235 234 232 232 210 163 182 236 79 138 317 149 140 158 154 142 156 184 275 223 266 88 33 5 215 93 179 14 351 166 215 93 126 113 162 7 201 89 259 206 131 125 332 119 310 238 192 244 66 42 180 187 214 246 233 194 233 258 70 67 224 252 250 265 279 240 267 336 271 192 217 276 301 172 198 257 238 248 257 262 27 66 66 72 51 85 74 76
235 232 228 219 196 182 240 117 138 211 240 77 109 120 142 127 144 207 237 313 291 131 92 165 44 160 230 179 242 269 54 355 189 98 269 359 226 135 228 232 228 218 160 176 255 49 206 158 190 174 187 195 222 234 76 174 198 295 27 32 85 275 280 229 233 268 279 333 305 168 186 264 265 73 292 234 254 248 255 305 32 40 63 69 88 46 49 57
36 8 216 216 195 188 45 53 157 218 142 151 127 122 111 144 223 294 351 266 137 85 13 85 350 156 30 257 77 50 224 94 339 57 329 291 353 291 221 230 208 231 167 224 258 233 18 32 209 210 184 225 217 27 166 167 225 116 115 92 91 100 76 198 254 279 280 290 270 150 193 271 288 48 174 6 277 301 356 16 49 62 74 56 41 31 34 39
24 27 316 174 118 88 323 64 239 124 126 149 126 136 122 139 23 215 185 235 42 281 156 109 193 336 314 154 216 59 211 69 60 9 31 203 83 89 59 7 194 155 220 200 243 262 58 173 10 184 219 245 88 55 4 242 61 117 161 168 160 136 188 158 207 282 289 248 256 167 194 217 284 287 346 154 357 350 357 357 100 79 66 56 43 30 36 42
18 2 2 159 152 176 130 215 229 146 151 128 120 127 202 238 222 202 234 214 331 130 161 123 154 18 170 193 65 78 29 3 125 173 131 189 135 202 313 219 134 217 196 250 253 238 186 146 200 230 41 89 127 103 59 61 108 206 73 327 314 220 168 208 185 179 254 268 139 184 194 204 232 123 290 71 318 238 263 300 339 68 61 51 45 41 42 47
9 340 41 182 89 179 167 255 179 146 136 123 130 167 194 252 163 219 209 133 274 198 144 178 272 127 112 21 243 119 163 81 323 167 164 164 171 197 196 244 173 291 262 181 286 93 240 214 198 10 253 195 161 228 122 85 107 117 87 313 286 286 347 254 154 228 213 255 75 347 53 269 238 247 297 309 309 312 172 303 7 50 66 58 58 51 46 42
3 354 359 228 84 182 209 155 130 142 122 130 218 159 157 186 255 146 225 182 270 114 184 30 127 181 162 186 257 157 336 177 137 147 116 48 154 247 268 239 140 216 287 44 302 305 290 91 144 214 277 206 194 213 166 215 165 160 185 169 185 284 258 269 283 268 290 280 77 58 239 253 290 263 230 249 260 27 36 53 70 81 75 68 61 50 47 44
351 15 146 210 206 134 129 147 153 145 135 176 179 59 82 228 233 24 201 201 204 17 74 125 107 106 190 274 344 173 264 189 155 177 162 146 109 243 229 196 150 141 201 349 298 342 311 297 153 187 244 145 194 213 218 42 157 196 129 177 196 206 238 283 278 272 275 298 109 208 108 233 106 21 42 324 46 31 38 78 85 76 72 71 64 54 44 41
340 100 119 81 223 170 146 172 156 173 133 142 85 203 214 230 137 193 211 237 286 272 111 111 9 319 235 207 193 230 230 287 145 130 177 155 224 205 193 187 195 145 107 84 240 70 232 256 265 161 304 159 191 229 88 105 106 200 207 24 354 236 164 239 243 243 280 299 277 168 220 324 239 33 191 224 334 50 67 69 69 64 60 58 56 46 41 34
115 111 112 220 203 186 161 170 167 181 166 144 165 224 227 193 228 124 228 83 39 147 318 266 147 265 265 243 108 207 179 237 157 170 233 217 230 220 184 184 170 180 162 190 173 250 211 248 140 177 134 200 193 134 208 145 262 153 130 196 220 20 185 263 304 238 42 290 259 248 256 255 268 251 268 258 93 81 65 54 49 49 47 49 48 41 37 34
65 91 189 195 221 175 175 163 161 167 201 181 187 238 226 283 230 103 228 182 224 135 130 307 263 199 263 256 189 176 168 150 209 183 247 146 268 206 219 254 154 190 198 184 265 198 241 272 154 147 228 227 94 167 164 224 149 100 213 229 62 224 24 222 260 127 220 237 266 271 266 275 285 296 112 123 76 64 55 64 67 60 54 58 60 54 51 41
121 196 293 220 209 165 172 156 153 167 192 196 219 229 101 229 212 221 100 111 286 93 260 219 261 186 254 251 260 157 179 210 162 139 256 160 269 108 140 243 170 192 213 205 211 269 204 270 252 226 231 138 35 154 264 170 264 230 226 353 173 210 228 199 126 225 219 240 264 217 272 274 262 251 224 286 91 76 62 48 51 45 46 54 54 52 44 42
116 145 260 191 109 166 163 159 168 160 181 210 226 244 213 235 108 182 197 162 139 113 231 225 244 220 239 240 244 38 165 222 149 203 246 199 231 174 214 201 248 160 355 159 225 216 179 257 264 60 173 129 102 162 225 188 147 118 323 267 67 15 244 197 204 238 265 264 252 247 231 271 254 297 109 78 71 84 82 67 58 59 54 49 52 52 48 41
158 119 255 113 230 169 156 158 160 183 194 216 221 226 79 212 219 31 150 190 246 196 235 244 211 250 223 255 166 252 207 223 193 232 203 347 248 184 208 172 264 70 20 307 252 94 245 176 268 144 343 112 216 178 218 183 182 186 218 228 176 205 345 65 349 202 228 253 230 270 245 244 284 33 80 91 81 62 67 74 56 48 50 50 49 42 42 44
250 241 230 49 144 156 144 155 179 198 206 249 261 242 219 244 74 324 30 285 238 9 251 215 201 223 240 300 240 168 248 221 217 240 219 282 223 272 46 17 330 99 103 38 218 242 235 201 241 246 238 204 243 98 204 217 222 217 192 208 205 180 211 237 253 166 232 220 236 244 252 222 75 9 94 114 123 111 89 83 81 58 50 52 51 56 58 54
172 174 177 32 161 160 156 176 208 172 222 213 222 207 241 271 253 240 173 42 217 248 75 228 248 264 249 254 261 259 212 230 223 246 221 251 218 234 58 344 3 6 211 225 177 14 279 45 317 257 241 258 277 96 69 338 2 354 295 268 227 268 219 238 259 217 224 223 242 242 269 206 97 107 112 113 112 113 117 119 107 98 64 50 36 27 23 29
193 139 14 15 342 179 164 206 187 198 219 236 72 275 203 285 224 263 103 124 224 237 259 225 234 243 243 251 253 261 249 261 224 251 243 230 258 343 335 342 351 12 355 351 337 233 50 251 255 255 257 273 281 308 90 90 120 287 258 221 250 243 244 264 277 5 280 308 229 232 238 217 126 98 108 110 111 115 118 99 111 108 108 72 64 27 28 20
110 105 134 7 3 244 189 196 204 208 223 229 226 241 198 218 229 204 209 225 207 188 216 229 0 224 269 35 90 249 123 270 232 247 259 43 280 91 2 12 350 89 278 252 274 279 277 251 312 302 291 275 247 181 115 61 120 147 336 358 358 318 321 294 260 143 269 193 254 267 264 255 158 158 160 147 140 125 106 81 57 76 65 53 34 32 22 16
112 10 285 316 332 316 217 234 221 209 214 225 233 241 241 248 233 253 249 244 218 221 222 252 246 145 214 70 65 89 214 240 285 1 199 265 200 78 11 29 6 106 355 360 48 328 260 257 278 287 294 292 291 284 292 319 46 348 307 353 356 49 340 341 270 249 250 187 211 234 247 268 82 160 183 163 140 126 127 125 124 108 75 70 5 2 357 348
200 152 232 24 29 22 329 304 5 220 220 220 235 242 249 249 253 200 207 247 230 225 225 237 63 183 215 218 247 250 253 184 196 251 201 223 180 63 12 17 50 67 20 23 22 300 247 255 218 246 261 267 274 284 297 111 287 252 257 297 284 261 176 236 269 263 253 313 290 287 298 301 290 231 245 179 135 130 149 158 172 181 195 226 244 283 305 306
300 134 162 185 58 274 210 75 182 195 208 204 217 222 231 229 234 275 200 221 319 230 222 234 202 207 224 218 242 259 256 255 227 242 256 268 308 52 9 106 56 25 346 4 12 105 236 251 216 243 249 262 270 270 281 151 264 264 253 252 256 262 265 269 262 263 328 319 273 255 269 271 261 277 281 289 127 129 144 160 203 205 217 216 241 248 266 278
150 275 81 315 201 195 189 237 179 198 140 172 226 344 264 206 206 214 63 69 9 304 177 357 143 254 214 231 127 212 205 148 197 240 136 104 263 266 55 34 63 349 355 27 295 187 242 265 267 263 261 258 257 256 240 234 217 226 238 249 253 256 256 253 255 267 275 259 276 303 296 281 270 268 280 328 102 105 141 201 220 243 243 227 229 242 249 257
68 25 61 317 180 325 27 72 98 176 222 195 244 254 247 236 230 192 149 337 349 332 263 204 119 47 68 23 186 250 281 293 267 86 159 350 102 319 278 254 161 31 26 353 328 229 266 256 250 332 299 289 279 282 287 284 286 275 260 258 261 263 263 265 268 264 257 258 261 268 269 271 276 286 66 106 120 66 336 311 285 277 280 271 258 254 250 250
188 149 162 56 68 84 50 66 94 88 214 212 232 229 235 234 247 249 263 193 256 247 55 272 227 93 96 95 154 238 246 259 278 269 109 119 288 167 265 283 313 11 32 354 317 308 277 272 83 300 287 273 276 279 280 277 283 275 274 273 268 265 267 268 269 262 263 260 259 258 258 262 274 90 107 101 161 296 296 304 296 290 274 270 273 276 275 268
12 29 354 133 125 157 87 89 137 173 197 222 225 254 350 236 250 196 233 12 257 255 174 180 130 121 153 115 290 224 244 166 181 215 154 188 221 77 98 280 88 316 329 56 326 314 355 263 348 189 291 268 260 256 268 294 286 275 277 272 266 263 269 257 255 255 252 256 255 259 255 256 122 108 93 189 184 308 313 315 311 307 300 278 273 281 281 279
81 274 82 349 103 147 138 140 136 144 220 213 191 201 209 229 109 165 143 89 49 63 88 120 134 127 217 210 225 236 183 149 151 178 188 236 265 269 218 231 252 237 285 230 234 255 218 196 295 297 285 255 276 283 324 317 299 277 241 244 256 260 250 256 258 260 257 265 267 256 272 16 126 138 62 36 193 315 304 314 314 311 310 302 288 281 276 272